FW4287 Weather Reports


Display with metric or nautical units.
time (UTC)temp
F
wind
direction
speed
MPH
gust
MPH
rain 1hr
in
rain 24hr
in
rain mn
in
humidity
%
barometer
mb
20260906211531 54 168 5.0 9.0 0.00 0.18 0.12 93 1018.4
20260906210030 54 168 5.0 7.0 0.00 0.18 0.12 93 1018.3
20260906204603 54 177 4.0 7.0 0.00 0.18 0.12 92 1018.3
20260906200031 53 160 3.0 4.0 0.00 0.18 0.12 94 1018.3
20260906194530 54 83 1.0 4.0 0.00 0.18 0.12 94 1018.2
20260906193033 53 337 0.0 1.0 0.00 0.18 0.12 94 1018.3
20260906190032 53 17 0.0 2.0 0.00 0.18 0.12 95 1018.3
20260906184528 52 22 0.0 3.0 0.00 0.18 0.12 96 1018.3
20260906183033 51 22 0.0 2.0 0.00 0.18 0.12 97 1018.3
20260906181610 51 42 2.0 4.0 0.00 0.18 0.12 97 1018.4
20260906180031 51 44 2.0 5.0 0.01 0.18 0.12 98 1018.3
20260906174530 51 14 3.0 7.0 0.01 0.18 0.12 99 1018.2
20260906173029 51 326 3.0 7.0 0.01 0.18 0.12 99 1018.1
20260906171531 52 296 3.0 5.0 0.01 0.18 0.11 99 1018.1
20260906170032 52 296 3.0 7.0 0.00 0.17 0.11 99 1018.1
20260906164530 52 323 3.0 6.0 0.00 0.17 0.11 99 1018.0
20260906163106 52 336 2.0 5.0 0.01 0.17 0.11 99 1018.0
20260906161605 52 347 2.0 5.0 0.01 0.17 0.11 99 1017.9
20260906160030 52 353 3.0 6.0 0.02 0.17 0.11 99 1017.9
20260906154529 52 259 0.0 5.0 0.02 0.17 0.10 99 1017.9
20260906153146 52 202 0.0 0.0 0.02 0.16 0.10 99 1017.8
20260906151529 52 202 0.0 0.0 0.02 0.16 0.09 99 1017.6
20260906150029 51 202 0.0 0.0 0.02 0.15 0.09 99 1017.5
20260906144531 51 202 0.0 0.0 0.03 0.15 0.08 99 1017.3
20260906143144 51 202 0.0 0.0 0.02 0.14 0.08 99 1017.1
20260906141529 51 200 0.0 3.0 0.02 0.14 0.07 99 1016.9
20260906140032 51 163 0.0 2.0 0.01 0.13 0.06 99 1016.8
20260906134530 51 138 0.0 3.0 0.01 0.12 0.06 99 1016.7
20260906133033 51 97 1.0 5.0 0.01 0.12 0.06 98 1016.6
20260906130108 51 25 0.0 2.0 0.01 0.12 0.05 98 1016.6
20260906124531 51 90 0.0 0.0 0.00 0.11 0.05 98 1016.7
20260906123031 51 90 0.0 0.0 0.00 0.11 0.05 98 1016.7
20260906121529 51 92 0.0 2.0 0.00 0.11 0.05 98 1016.7
20260906120032 51 225 0.0 0.0 0.01 0.11 0.05 98 1016.8
20260906114531 51 162 0.0 0.0 0.01 0.11 0.05 97 1016.8
20260906113032 51 138 0.0 2.0 0.01 0.11 0.05 97 1016.8
20260906111646 52 62 0.0 1.0 0.02 0.11 0.04 97 1017.0
20260906104530 52 179 0.0 2.0 0.02 0.10 0.04 96 1017.1
20260906101533 52 175 2.0 6.0 0.02 0.09 0.03 96 1017.4
20260906100029 52 175 5.0 9.0 0.03 0.09 0.02 96 1017.4
20260906094531 52 181 5.0 10.0 0.02 0.08 0.01 96 1017.4
20260906093029 52 180 7.0 11.0 0.01 0.07 0.01 96 1017.5
20260906091533 52 184 4.0 7.0 0.01 0.07 0.00 95 1017.4
20260906090032 52 164 4.0 7.0 0.00 0.06 0.00 95 1017.4
20260906081607 51 337 0.0 0.0 0.00 0.06 0.00 95 1017.4
20260906080032 51 337 0.0 0.0 0.00 0.06 0.00 95 1017.3
20260906074527 51 337 0.0 0.0 0.00 0.06 0.00 95 1017.3
20260906073030 51 17 0.0 0.0 0.00 0.06 0.00 95 1017.4
20260906071531 51 37 0.0 0.0 0.00 0.06 0.00 95 1017.5
20260906064531 51 45 0.0 2.0 0.00 0.06 0.06 94 1017.7
20260906063029 51 45 0.0 2.0 0.00 0.06 0.06 94 1017.8
20260906061529 51 74 1.0 3.0 0.00 0.06 0.06 94 1017.8
20260906060103 52 90 0.0 1.0 0.00 0.06 0.06 93 1017.9
20260906054531 52 112 0.0 2.0 0.00 0.06 0.06 93 1017.9
20260906053032 53 167 1.0 6.0 0.00 0.06 0.06 93 1018.0
20260906051533 52 245 0.0 5.0 0.00 0.06 0.06 93 1018.1
20260906050107 53 91 0.0 4.0 0.00 0.06 0.06 93 1018.1
20260906043030 54 129 3.0 6.0 0.00 0.06 0.06 93 1018.2
20260906040029 54 116 5.0 8.0 0.00 0.06 0.06 93 1018.1
20260906034532 53 109 4.0 7.0 0.00 0.06 0.06 94 1018.0
20260906033028 53 100 0.0 6.0 0.00 0.06 0.06 94 1017.8
20260906031530 54 112 0.0 0.0 0.00 0.06 0.06 93 1017.7
20260906030029 54 112 0.0 2.0 0.00 0.06 0.06 92 1017.6
20260906024532 55 112 0.0 0.0 0.00 0.06 0.06 90 1017.7
20260906023030 57 140 0.0 3.0 0.00 0.06 0.06 88 1017.7
20260906021529 59 172 0.0 1.0 0.00 0.06 0.06 86 1017.7
20260906020029 61 157 0.0 0.0 0.00 0.06 0.06 85 1017.6
20260906014529 61 144 0.0 0.0 0.00 0.06 0.06 83 1017.5
20260906013030 61 157 1.0 4.0 0.00 0.06 0.06 84 1017.7
20260906011603 62 164 1.0 3.0 0.01 0.06 0.06 80 1017.8
20260906004537 60 157 3.0 5.0 0.04 0.06 0.06 82 1018.1
20260906000145 58 100 6.0 11.0 0.02 0.03 0.02 87 1018.2
20260905234529 58 152 5.0 9.0 0.02 0.02 0.02 88 1018.3
20260905233029 58 143 4.0 7.0 0.02 0.02 0.02 89 1018.1
20260905231603 58 162 3.0 6.0 0.02 0.02 0.01 86 1018.1
20260905230029 58 215 4.0 13.0 0.01 0.01 0.00 79 1018.1
20260905224530 62 196 6.0 12.0 0.00 0.00 0.00 66 1018.0
20260905223147 63 274 2.0 5.0 0.00 0.00 0.00 63 1017.9
20260905221606 64 307 4.0 7.0 0.00 0.00 0.00 62 1017.7
20260905214603 63 291 4.0 7.0 0.00 0.00 0.00 64 1017.9